EW6167 Weather Reports


time (UTC)temp
C
wind
direction
speed
KPH
gust
KPH
rain 1hr
cm
rain 24hr
cm
rain mn
cm
humidity
%
barometer
mb
20260505014507 7 336 33.8 0.0 0.00 0.00 0.00 52 1008.2
20260505014022 7 319 35.4 0.0 0.00 0.00 0.00 52 1008.0
20260505013538 7 331 37.0 0.0 0.00 0.00 0.00 52 1007.9
20260505013055 7 320 38.6 0.0 0.00 0.00 0.00 51 1007.8
20260505012505 8 305 40.2 0.0 0.00 0.00 0.00 50 1007.9
20260505012026 8 321 41.8 0.0 0.00 0.00 0.00 50 1007.7
20260505011603 8 309 40.2 0.0 0.00 0.00 0.00 49 1007.4
20260505011058 8 330 38.6 0.0 0.00 0.00 0.00 49 1007.6
20260505010505 8 316 38.6 0.0 0.00 0.00 0.00 50 1007.5
20260505010021 8 323 37.0 0.0 0.00 0.00 0.00 50 1007.5
20260505005540 8 325 37.0 0.0 0.00 0.00 0.00 50 1007.3
20260505005100 9 330 37.0 0.0 0.00 0.00 0.00 48 1007.4
20260505004514 9 320 37.0 0.0 0.00 0.00 0.00 47 1007.6
20260505004033 10 327 37.0 0.0 0.00 0.00 0.00 47 1007.5
20260505003548 10 315 38.6 0.0 0.00 0.00 0.00 46 1007.1
20260505003104 10 331 37.0 0.0 0.00 0.00 0.00 46 1007.3
20260505002522 10 323 35.4 0.0 0.00 0.00 0.00 45 1007.2
20260505002036 10 337 33.8 0.0 0.00 0.00 0.00 46 1007.1
20260505001605 10 321 33.8 0.0 0.00 0.00 0.00 46 1007.1
20260505001105 11 325 32.2 0.0 0.00 0.00 0.00 46 1007.0
20260505000516 11 327 30.6 0.0 0.00 0.00 0.00 45 1007.1
20260505000037 11 327 29.0 0.0 0.00 0.00 0.00 46 1007.1
20260504235545 11 338 30.6 0.0 0.00 0.00 0.00 45 1007.0
20260504235007 11 336 30.6 0.0 0.00 0.00 0.00 45 1006.9
20260504234520 11 336 30.6 0.0 0.00 0.00 0.00 45 1006.9
20260504234036 11 328 30.6 0.0 0.00 0.00 0.00 45 1006.8
20260504233554 11 325 30.6 0.0 0.00 0.00 0.00 45 1006.7
20260504233012 11 329 29.0 0.0 0.00 0.00 0.00 45 1006.7
20260504232525 11 337 30.6 0.0 0.00 0.00 0.00 45 1006.7
20260504232044 11 349 32.2 0.0 0.00 0.00 0.00 45 1006.6
20260504231502 11 330 32.2 0.0 0.00 0.00 0.00 45 1006.5
20260504231019 11 338 30.6 0.0 0.00 0.00 0.00 44 1006.7
20260504230533 11 331 30.6 0.0 0.00 0.00 0.00 46 1006.5
20260504230051 11 323 30.6 0.0 0.00 0.00 0.00 44 1006.5
20260504225502 12 337 27.4 0.0 0.00 0.00 0.00 42 1006.4
20260504225015 13 340 27.4 0.0 0.00 0.00 0.00 42 1006.3
20260504224533 13 321 27.4 0.0 0.00 0.00 0.00 42 1006.2
20260504224054 13 331 25.7 0.0 0.00 0.00 0.00 43 1006.1
20260504223507 13 355 24.1 0.0 0.00 0.00 0.00 42 1006.0
20260504223025 13 351 22.5 0.0 0.00 0.00 0.00 43 1006.0
20260504222537 13 339 25.7 0.0 0.00 0.00 0.00 42 1006.2
20260504222052 13 355 24.1 0.0 0.00 0.00 0.00 43 1006.1
20260504221508 13 340 27.4 0.0 0.00 0.00 0.00 42 1006.2
20260504221025 13 326 25.7 0.0 0.00 0.00 0.00 41 1006.2
20260504220540 13 321 24.1 0.0 0.00 0.00 0.00 42 1006.2
20260504220104 13 323 24.1 0.0 0.00 0.00 0.00 41 1006.2
20260504215514 13 342 25.7 0.0 0.00 0.00 0.00 40 1006.3
20260504215031 13 329 24.1 0.0 0.00 0.00 0.00 42 1006.4
20260504214547 13 5 25.7 0.0 0.00 0.00 0.00 40 1006.3
20260504214005 13 321 25.7 0.0 0.00 0.00 0.00 43 1006.4
20260504213517 13 346 27.4 0.0 0.00 0.00 0.00 41 1006.5
20260504213034 13 344 27.4 0.0 0.00 0.00 0.00 40 1006.6
20260504212548 13 338 27.4 0.0 0.00 0.00 0.00 41 1006.6
20260504212107 13 329 25.7 0.0 0.00 0.00 0.00 41 1006.4
20260504211515 13 335 25.7 0.0 0.00 0.00 0.00 41 1006.6
20260504211033 13 336 25.7 0.0 0.00 0.00 0.00 41 1006.8
20260504210550 13 5 24.1 0.0 0.00 0.00 0.00 40 1006.8
20260504210106 14 331 24.1 0.0 0.00 0.00 0.00 41 1006.7
20260504205517 13 332 24.1 0.0 0.00 0.00 0.00 41 1006.8
20260504205034 13 5 24.1 0.0 0.00 0.00 0.00 42 1006.8
20260504204548 13 16 24.1 0.0 0.00 0.00 0.00 40 1006.8
20260504204002 13 349 22.5 0.0 0.00 0.00 0.00 42 1006.7
20260504203517 13 342 20.9 0.0 0.00 0.00 0.00 41 1006.7
20260504203034 13 340 19.3 0.0 0.00 0.00 0.00 40 1006.7
20260504202550 13 348 17.7 0.0 0.00 0.00 0.00 41 1006.8
20260504202001 12 333 16.1 0.0 0.00 0.00 0.00 41 1006.8
20260504201519 12 332 19.3 0.0 0.00 0.00 0.00 40 1006.9
20260504201036 13 16 19.3 0.0 0.00 0.00 0.00 42 1006.8
20260504200554 13 338 20.9 0.0 0.00 0.00 0.00 40 1006.8
20260504200012 13 337 19.3 0.0 0.00 0.00 0.00 43 1006.9
20260504195525 13 317 19.3 0.0 0.00 0.00 0.00 41 1006.8
20260504195042 13 360 19.3 0.0 0.00 0.00 0.00 40 1006.9
20260504194606 13 346 19.3 0.0 0.00 0.00 0.00 41 1006.9
20260504194010 13 343 17.7 0.0 0.00 0.00 0.00 41 1006.8
20260504193523 12 300 17.7 0.0 0.00 0.00 0.00 44 1006.9
20260504193043 12 339 16.1 0.0 0.00 0.00 0.00 44 1006.9
20260504192558 12 309 16.1 0.0 0.00 0.00 0.00 43 1007.0
20260504192010 12 313 14.5 0.0 0.00 0.00 0.00 41 1007.1
20260504191528 12 9 12.9 0.0 0.00 0.00 0.00 43 1007.2
20260504191044 12 5 11.3 0.0 0.00 0.00 0.00 44 1007.3
20260504190559 11 17 12.9 0.0 0.00 0.00 0.00 45 1007.3
20260504190009 11 337 16.1 0.0 0.00 0.00 0.00 43 1007.4
20260504185526 11 321 17.7 0.0 0.00 0.00 0.00 44 1007.6
20260504185047 11 337 14.5 0.0 0.00 0.00 0.00 44 1007.6
20260504184602 11 15 14.5 0.0 0.00 0.00 0.00 46 1007.6
20260504184014 11 360 14.5 0.0 0.00 0.00 0.00 46 1007.7
20260504183528 11 355 16.1 0.0 0.00 0.00 0.00 46 1007.7
20260504183050 11 360 16.1 0.0 0.00 0.00 0.00 47 1007.8
20260504182604 11 327 16.1 0.0 0.00 0.00 0.00 47 1007.8
20260504182012 10 334 16.1 0.0 0.00 0.00 0.00 49 1007.9
20260504181529 10 355 16.1 0.0 0.00 0.00 0.00 47 1007.9
20260504181049 10 341 17.7 0.0 0.00 0.00 0.00 47 1008.0
20260504180607 10 310 17.7 0.0 0.00 0.00 0.00 49 1008.0
20260504180019 10 313 16.1 0.0 0.00 0.00 0.00 49 1008.1
20260504175534 10 301 16.1 0.0 0.00 0.00 0.00 49 1008.2
20260504175051 10 331 14.5 0.0 0.00 0.00 0.00 50 1008.2
20260504174509 10 355 14.5 0.0 0.00 0.00 0.00 48 1008.5
20260504174018 10 21 14.5 0.0 0.00 0.00 0.00 48 1008.5
20260504173534 10 340 12.9 0.0 0.00 0.00 0.00 50 1008.3
20260504173051 9 338 12.9 0.0 0.00 0.00 0.00 50 1008.4
20260504172603 9 321 14.5 0.0 0.00 0.00 0.00 49 1008.4
20260504172014 9 311 16.1 0.0 0.00 0.00 0.00 51 1008.4
20260504171541 9 329 16.1 0.0 0.00 0.00 0.00 50 1008.5
20260504171042 9 322 17.7 0.0 0.00 0.00 0.00 51 1008.6
20260504170558 8 321 19.3 0.0 0.00 0.00 0.00 51 1008.5
20260504151052 7 344 16.1 0.0 0.00 0.00 0.00 55 1008.9
20260504150502 7 333 17.7 0.0 0.00 0.00 0.00 54 1008.9
20260504141026 6 327 27.4 0.0 0.00 0.00 0.00 57 1009.1
20260504140544 6 316 25.7 0.0 0.00 0.00 0.00 57 1009.0
20260504130542 5 336 12.9 0.0 0.00 0.00 0.00 62 1008.5
20260504120105 2 96 4.8 0.0 0.00 0.00 0.00 74 1007.7
20260504110520 2 179 8.0 0.0 0.00 0.00 0.00 78 1006.3
20260504100523 1 182 8.0 0.0 0.00 0.00 0.00 79 1006.3
20260504081552 2 182 8.0 0.0 0.00 0.00 0.00 76 1006.5
20260504081003 2 192 6.4 0.0 0.00 0.00 0.00 76 1006.6
20260504080521 2 188 6.4 0.0 0.00 0.00 0.00 76 1006.5
20260504050508 6 181 8.0 0.0 0.00 0.00 0.00 63 1006.0
20260504050021 6 197 8.0 0.0 0.00 0.00 0.00 63 1006.0
20260504045541 5 141 8.0 0.0 0.00 0.00 0.00 65 1006.0
20260504045059 6 215 9.7 0.0 0.00 0.00 0.00 65 1005.9
20260504044518 6 219 9.7 0.0 0.00 0.00 0.00 66 1005.9
20260504044025 5 228 9.7 0.0 0.00 0.00 0.00 67 1006.0
20260504043544 5 199 9.7 0.0 0.00 0.00 0.00 68 1005.7
20260504043106 5 194 9.7 0.0 0.00 0.00 0.00 69 1005.6
20260504042521 5 189 8.0 0.0 0.00 0.00 0.00 69 1005.6
20260504042039 5 186 8.0 0.0 0.00 0.00 0.00 70 1005.7
20260504041556 5 190 8.0 0.0 0.00 0.00 0.00 71 1005.7
20260504041011 5 190 8.0 0.0 0.00 0.00 0.00 69 1005.7
20260504040532 5 176 8.0 0.0 0.00 0.00 0.00 66 1005.6
20260504040045 6 176 8.0 0.0 0.00 0.00 0.00 62 1005.6
20260504035602 7 162 8.0 0.0 0.00 0.00 0.00 60 1005.6
20260504035007 6 162 6.4 0.0 0.00 0.00 0.00 61 1005.6
20260504034524 6 162 8.0 0.0 0.00 0.00 0.00 62 1005.5
20260504034038 7 162 8.0 0.0 0.00 0.00 0.00 61 1005.5
20260504033553 7 162 9.7 0.0 0.00 0.00 0.00 59 1005.4
20260504033013 7 162 8.0 0.0 0.00 0.00 0.00 59 1005.3
20260504032526 7 161 8.0 0.0 0.00 0.00 0.00 58 1005.2
20260504032044 8 180 6.4 0.0 0.00 0.00 0.00 57 1005.3
20260504031558 9 180 8.0 0.0 0.00 0.00 0.00 54 1005.2
20260504031004 10 180 6.4 0.0 0.00 0.00 0.00 50 1005.2
20260504030521 12 187 4.8 0.0 0.00 0.00 0.00 45 1005.1
20260504030040 12 190 3.2 0.0 0.00 0.00 0.00 40 1005.1
20260504025559 13 13 3.2 0.0 0.00 0.00 0.00 40 1005.0
20260504025008 13 13 1.6 0.0 0.00 0.00 0.00 38 1005.0
20260504024523 14 13 0.0 0.0 0.00 0.00 0.00 38 1004.9
20260504024042 14 13 0.0 0.0 0.00 0.00 0.00 36 1004.9
20260504023555 15 13 1.6 0.0 0.00 0.00 0.00 36 1004.9
20260504023009 15 13 3.2 0.0 0.00 0.00 0.00 34 1004.9
20260504022525 15 13 3.2 0.0 0.00 0.00 0.00 34 1004.9
20260504022044 15 13 3.2 0.0 0.00 0.00 0.00 35 1004.7
20260504021600 16 13 3.2 0.0 0.00 0.00 0.00 34 1004.7
20260504021015 16 13 4.8 0.0 0.00 0.00 0.00 34 1004.6
20260504020536 16 13 6.4 0.0 0.00 0.00 0.00 33 1004.6
20260504020050 16 13 6.4 0.0 0.00 0.00 0.00 32 1004.6
20260504015506 17 13 6.4 0.0 0.00 0.00 0.00 29 1004.6
20260504015026 17 13 6.4 0.0 0.00 0.00 0.00 28 1004.7